Time,TemperatureF,DewpointF,PressureIn,WindDirection,WindDirectionDegrees,WindSpeedMPH,WindSpeedGustMPH,Humidity,HourlyPrecipIn,Conditions,Clouds,dailyrainin,SoftwareType,DateUTC
2013-02-06 00:04:00,18.0,13.2,29.93,West,270,0.0,3.0,81,0.00,,,0.00,Weather View 32 v70,2013-02-06 05:04:00,
2013-02-06 00:09:00,18.0,13.2,29.93,WNW,292,0.0,2.0,81,0.00,,,0.00,Weather View 32 v70,2013-02-06 05:09:00,
2013-02-06 00:14:00,18.0,13.2,29.93,SW,225,0.0,2.0,81,0.00,,,0.00,Weather View 32 v70,2013-02-06 05:14:00,
2013-02-06 00:19:00,18.0,13.2,29.93,West,270,0.0,2.0,81,0.00,,,0.00,Weather View 32 v70,2013-02-06 05:19:00,
2013-02-06 00:29:00,18.0,13.2,29.93,WNW,292,0.0,2.0,81,0.00,,,0.00,Weather View 32 v70,2013-02-06 05:29:00,
2013-02-06 00:34:00,18.0,12.9,29.93,SW,225,0.0,2.0,80,0.00,,,0.00,Weather View 32 v70,2013-02-06 05:34:00,
2013-02-06 00:42:00,18.0,12.9,29.93,SW,225,0.0,2.0,80,0.00,,,0.00,Weather View 32 v70,2013-02-06 05:42:00,
2013-02-06 00:49:00,18.0,12.6,29.93,WNW,292,0.0,2.0,79,0.00,,,0.00,Weather View 32 v70,2013-02-06 05:49:00,
2013-02-06 00:59:00,18.0,12.6,29.93,WSW,248,0.0,2.0,79,0.00,,,0.00,Weather View 32 v70,2013-02-06 05:59:00,
2013-02-06 01:04:00,18.0,12.6,29.93,West,270,0.0,2.0,79,0.00,,,0.00,Weather View 32 v70,2013-02-06 06:04:00,
2013-02-06 01:14:00,18.0,12.6,29.93,WSW,248,0.0,2.0,79,0.00,,,0.00,Weather View 32 v70,2013-02-06 06:14:00,
2013-02-06 01:19:00,18.0,12.9,29.93,West,270,0.0,2.0,80,0.00,,,0.00,Weather View 32 v70,2013-02-06 06:19:00,
2013-02-06 01:29:00,18.0,13.2,29.94,SW,225,0.0,2.0,81,0.00,,,0.00,Weather View 32 v70,2013-02-06 06:29:00,
2013-02-06 01:39:00,18.0,13.4,29.93,SW,225,0.0,1.0,82,0.00,,,0.00,Weather View 32 v70,2013-02-06 06:39:00,
2013-02-06 01:44:00,18.0,13.7,29.94,West,270,0.0,1.0,83,0.00,,,0.00,Weather View 32 v70,2013-02-06 06:44:00,
2013-02-06 01:54:00,17.0,13.3,29.94,West,270,0.0,1.0,85,0.00,,,0.00,Weather View 32 v70,2013-02-06 06:54:00,
2013-02-06 02:04:00,17.0,13.5,29.94,WSW,248,0.0,1.0,86,0.00,,,0.00,Weather View 32 v70,2013-02-06 07:04:00,
2013-02-06 02:14:00,17.0,13.8,29.93,SW,225,0.0,1.0,87,0.00,,,0.00,Weather View 32 v70,2013-02-06 07:14:00,
2013-02-06 02:24:00,17.0,14.1,29.93,West,270,0.0,1.0,88,0.00,,,0.00,Weather View 32 v70,2013-02-06 07:24:00,
2013-02-06 02:34:00,17.0,14.1,29.92,SE,135,0.0,1.0,88,0.00,,,0.00,Weather View 32 v70,2013-02-06 07:34:00,
2013-02-06 02:43:00,17.0,14.1,29.93,WNW,292,0.0,1.0,88,0.00,,,0.00,Weather View 32 v70,2013-02-06 07:43:00,
2013-02-06 02:49:00,17.0,14.6,29.93,SSE,158,0.0,1.0,90,0.00,,,0.00,Weather View 32 v70,2013-02-06 07:49:00,
2013-02-06 02:59:00,17.0,14.6,29.93,WNW,292,0.0,1.0,90,0.00,,,0.00,Weather View 32 v70,2013-02-06 07:59:00,
2013-02-06 03:04:00,17.0,14.6,29.93,WNW,292,0.0,1.0,90,0.00,,,0.00,Weather View 32 v70,2013-02-06 08:04:00,
2013-02-06 03:14:00,17.0,14.8,29.93,WSW,248,0.0,1.0,91,0.00,,,0.00,Weather View 32 v70,2013-02-06 08:14:00,
2013-02-06 03:24:00,17.0,15.1,29.93,SW,225,0.0,1.0,92,0.00,,,0.00,Weather View 32 v70,2013-02-06 08:24:00,
2013-02-06 03:34:00,17.0,15.1,29.93,WSW,248,0.0,1.0,92,0.00,,,0.00,Weather View 32 v70,2013-02-06 08:34:00,
2013-02-06 03:43:00,17.0,15.1,29.93,WNW,292,0.0,1.0,92,0.00,,,0.00,Weather View 32 v70,2013-02-06 08:43:00,
2013-02-06 03:49:00,17.0,15.3,29.93,SW,225,0.0,1.0,93,0.00,,,0.00,Weather View 32 v70,2013-02-06 08:49:00,
2013-02-06 03:54:00,17.0,15.3,29.93,West,270,0.0,1.0,93,0.00,,,0.00,Weather View 32 v70,2013-02-06 08:54:00,
2013-02-06 04:04:00,17.0,15.6,29.93,SE,135,0.0,1.0,94,0.00,,,0.00,Weather View 32 v70,2013-02-06 09:04:00,
2013-02-06 04:14:00,17.0,15.6,29.93,WNW,292,0.0,1.0,94,0.00,,,0.00,Weather View 32 v70,2013-02-06 09:14:00,
2013-02-06 04:24:00,17.0,15.6,29.93,West,270,0.0,1.0,94,0.00,,,0.00,Weather View 32 v70,2013-02-06 09:24:00,
2013-02-06 04:34:00,16.0,14.8,29.92,WNW,292,0.0,1.0,95,0.00,,,0.00,Weather View 32 v70,2013-02-06 09:34:00,
2013-02-06 04:39:00,16.0,14.8,29.92,South,180,0.0,1.0,95,0.00,,,0.00,Weather View 32 v70,2013-02-06 09:39:00,
2013-02-06 04:49:00,16.0,15.1,29.93,West,270,0.0,1.0,96,0.00,,,0.00,Weather View 32 v70,2013-02-06 09:49:00,
2013-02-06 04:54:00,16.0,15.1,29.93,SW,225,0.0,1.0,96,0.00,,,0.00,Weather View 32 v70,2013-02-06 09:54:00,
2013-02-06 04:59:00,16.0,15.1,29.93,West,270,0.0,1.0,96,0.00,,,0.00,Weather View 32 v70,2013-02-06 09:59:00,
2013-02-06 05:09:00,16.0,15.1,29.93,South,180,1.0,1.0,96,0.00,,,0.00,Weather View 32 v70,2013-02-06 10:09:00,
2013-02-06 05:14:00,16.0,15.1,29.93,West,270,0.0,1.0,96,0.00,,,0.00,Weather View 32 v70,2013-02-06 10:14:00,
2013-02-06 05:19:00,16.0,15.3,29.93,South,180,0.0,1.0,97,0.00,,,0.00,Weather View 32 v70,2013-02-06 10:19:00,
2013-02-06 05:29:00,16.0,15.3,29.94,SSE,158,0.0,1.0,97,0.00,,,0.00,Weather View 32 v70,2013-02-06 10:29:00,
2013-02-06 05:39:00,16.0,15.3,29.94,WSW,248,0.0,1.0,97,0.00,,,0.00,Weather View 32 v70,2013-02-06 10:39:00,
2013-02-06 05:49:00,16.0,15.3,29.95,WSW,248,0.0,1.0,97,0.00,,,0.00,Weather View 32 v70,2013-02-06 10:49:00,
2013-02-06 05:54:00,16.0,15.3,29.94,SW,225,0.0,1.0,97,0.00,,,0.00,Weather View 32 v70,2013-02-06 10:54:00,
2013-02-06 06:04:00,16.0,15.5,29.94,West,270,0.0,1.0,98,0.00,,,0.00,Weather View 32 v70,2013-02-06 11:04:00,
2013-02-06 06:09:00,16.0,15.5,29.94,SW,225,0.0,1.0,98,0.00,,,0.00,Weather View 32 v70,2013-02-06 11:09:00,
2013-02-06 06:19:00,16.0,15.3,29.95,WNW,292,0.0,1.0,97,0.00,,,0.00,Weather View 32 v70,2013-02-06 11:19:00,
2013-02-06 06:24:00,16.0,15.3,29.95,SW,225,0.0,1.0,97,0.00,,,0.00,Weather View 32 v70,2013-02-06 11:24:00,
2013-02-06 06:29:00,16.0,15.5,29.96,WNW,292,0.0,1.0,98,0.00,,,0.00,Weather View 32 v70,2013-02-06 11:29:00,
2013-02-06 06:34:00,16.0,15.5,29.95,SW,225,0.0,1.0,98,0.00,,,0.00,Weather View 32 v70,2013-02-06 11:34:00,
2013-02-06 06:44:00,16.0,15.5,29.95,WNW,292,0.0,1.0,98,0.00,,,0.00,Weather View 32 v70,2013-02-06 11:44:00,
2013-02-06 06:49:00,16.0,15.5,29.96,West,270,0.0,1.0,98,0.00,,,0.00,Weather View 32 v70,2013-02-06 11:49:00,
2013-02-06 06:59:00,16.0,15.5,29.96,WNW,292,0.0,1.0,98,0.00,,,0.00,Weather View 32 v70,2013-02-06 11:59:00,
2013-02-06 07:09:00,16.0,15.5,29.96,West,270,0.0,1.0,98,0.00,,,0.00,Weather View 32 v70,2013-02-06 12:09:00,
2013-02-06 07:19:00,16.0,15.5,29.96,SSE,158,0.0,0.0,98,0.00,,,0.00,Weather View 32 v70,2013-02-06 12:19:00,
2013-02-06 07:24:00,16.0,15.5,29.96,SE,135,0.0,0.0,98,0.00,,,0.00,Weather View 32 v70,2013-02-06 12:24:00,
2013-02-06 07:34:00,16.0,15.8,29.97,SSW,202,0.0,1.0,99,0.00,,,0.00,Weather View 32 v70,2013-02-06 12:34:00,
2013-02-06 07:39:00,16.0,15.8,29.97,West,270,0.0,1.0,99,0.00,,,0.00,Weather View 32 v70,2013-02-06 12:39:00,
2013-02-06 07:46:00,16.0,15.8,29.96,South,180,0.0,1.0,99,0.00,,,0.00,Weather View 32 v70,2013-02-06 12:46:00,
2013-02-06 07:54:00,16.0,15.8,29.96,SW,225,0.0,1.0,99,0.00,,,0.00,Weather View 32 v70,2013-02-06 12:54:00,
2013-02-06 08:04:00,17.0,16.8,29.97,SE,135,0.0,2.0,99,0.00,,,0.00,Weather View 32 v70,2013-02-06 13:04:00,
2013-02-06 08:14:00,17.0,16.5,29.97,SSE,158,0.0,2.0,98,0.00,,,0.00,Weather View 32 v70,2013-02-06 13:14:00,
2013-02-06 08:19:00,17.0,16.5,29.97,SE,135,0.0,2.0,98,0.00,,,0.00,Weather View 32 v70,2013-02-06 13:19:00,
2013-02-06 08:29:00,17.0,16.3,29.97,South,180,1.0,2.0,97,0.00,,,0.00,Weather View 32 v70,2013-02-06 13:29:00,
2013-02-06 08:34:00,18.0,17.3,29.97,SSE,158,1.0,2.0,97,0.00,,,0.00,Weather View 32 v70,2013-02-06 13:34:00,
2013-02-06 08:44:00,18.0,17.1,29.97,SE,135,1.0,2.0,96,0.00,,,0.00,Weather View 32 v70,2013-02-06 13:44:00,
2013-02-06 08:49:00,18.0,17.1,29.97,SSW,202,0.0,2.0,96,0.00,,,0.00,Weather View 32 v70,2013-02-06 13:49:00,
2013-02-06 08:59:00,18.0,16.6,29.97,South,180,1.0,2.0,94,0.00,,,0.00,Weather View 32 v70,2013-02-06 13:59:00,
2013-02-06 09:09:00,18.0,16.6,29.97,SSE,158,1.0,2.0,94,0.00,,,0.00,Weather View 32 v70,2013-02-06 14:09:00,
2013-02-06 09:19:00,19.0,17.3,29.96,SSW,202,0.0,2.0,93,0.00,,,0.00,Weather View 32 v70,2013-02-06 14:19:00,
2013-02-06 09:24:00,19.0,17.3,29.97,SSE,158,2.0,3.0,93,0.00,,,0.00,Weather View 32 v70,2013-02-06 14:24:00,
2013-02-06 09:34:00,19.0,17.1,29.97,SSE,158,3.0,3.0,92,0.00,,,0.00,Weather View 32 v70,2013-02-06 14:34:00,
2013-02-06 09:39:00,19.0,17.1,29.97,SE,135,3.0,4.0,92,0.00,,,0.00,Weather View 32 v70,2013-02-06 14:39:00,
2013-02-06 09:47:00,20.0,18.3,29.97,South,180,3.0,4.0,93,0.00,,,0.00,Weather View 32 v70,2013-02-06 14:47:00,
2013-02-06 09:54:00,20.0,18.1,29.97,SE,135,1.0,4.0,92,0.00,,,0.00,Weather View 32 v70,2013-02-06 14:54:00,
2013-02-06 10:04:00,20.0,17.8,29.96,SSE,158,1.0,4.0,91,0.00,,,0.00,Weather View 32 v70,2013-02-06 15:04:00,
2013-02-06 10:14:00,21.0,18.8,29.96,WSW,248,1.0,4.0,91,0.00,,,0.00,Weather View 32 v70,2013-02-06 15:14:00,
2013-02-06 10:24:00,21.0,18.3,29.96,South,180,2.0,4.0,89,0.00,,,0.00,Weather View 32 v70,2013-02-06 15:24:00,
2013-02-06 10:29:00,21.0,18.5,29.96,SSE,158,3.0,4.0,90,0.00,,,0.00,Weather View 32 v70,2013-02-06 15:29:00,
2013-02-06 10:39:00,22.0,19.5,29.97,SW,225,1.0,4.0,90,0.00,,,0.00,Weather View 32 v70,2013-02-06 15:39:00,
2013-02-06 10:44:00,23.0,20.5,29.96,SSE,158,3.0,4.0,90,0.00,,,0.00,Weather View 32 v70,2013-02-06 15:44:00,
2013-02-06 10:54:00,24.0,21.2,29.96,SSE,158,2.0,5.0,89,0.00,,,0.00,Weather View 32 v70,2013-02-06 15:54:00,
2013-02-06 11:04:00,24.0,21.0,29.96,SE,135,3.0,11.0,88,0.00,,,0.00,Weather View 32 v70,2013-02-06 16:04:00,
2013-02-06 11:09:00,23.0,20.2,29.96,SSE,158,4.0,11.0,89,0.00,,,0.00,Weather View 32 v70,2013-02-06 16:09:00,
2013-02-06 11:19:00,26.0,22.7,29.95,WSW,248,3.0,11.0,87,0.00,,,0.00,Weather View 32 v70,2013-02-06 16:19:00,
2013-02-06 11:24:00,27.0,23.4,29.95,SSE,158,6.0,11.0,86,0.00,,,0.00,Weather View 32 v70,2013-02-06 16:24:00,
2013-02-06 11:34:00,29.0,24.2,29.95,WSW,248,1.0,12.0,82,0.00,,,0.00,Weather View 32 v70,2013-02-06 16:34:00,
2013-02-06 11:39:00,27.0,20.8,29.95,SSE,158,5.0,12.0,77,0.00,,,0.00,Weather View 32 v70,2013-02-06 16:39:00,
2013-02-06 11:48:00,26.0,20.4,29.95,South,180,4.0,12.0,79,0.00,,,0.00,Weather View 32 v70,2013-02-06 16:48:00,
2013-02-06 11:54:00,26.0,21.5,29.94,South,180,3.0,12.0,83,0.00,,,0.00,Weather View 32 v70,2013-02-06 16:54:00,
2013-02-06 12:04:00,29.0,23.0,29.94,South,180,3.0,12.0,78,0.00,,,0.00,Weather View 32 v70,2013-02-06 17:04:00,
2013-02-06 12:14:00,31.0,23.0,29.93,WSW,248,1.0,12.0,72,0.00,,,0.00,Weather View 32 v70,2013-02-06 17:14:00,
2013-02-06 12:19:00,32.0,23.3,29.94,SSW,202,3.0,12.0,70,0.00,,,0.00,Weather View 32 v70,2013-02-06 17:19:00,
2013-02-06 12:29:00,32.0,22.6,29.93,SSW,202,1.0,12.0,68,0.00,,,0.00,Weather View 32 v70,2013-02-06 17:29:00,
2013-02-06 12:34:00,32.0,22.3,29.94,WSW,248,6.0,11.0,67,0.00,,,0.00,Weather View 32 v70,2013-02-06 17:34:00,
2013-02-06 12:44:00,32.0,21.6,29.94,West,270,3.0,11.0,65,0.00,,,0.00,Weather View 32 v70,2013-02-06 17:44:00,
2013-02-06 12:54:00,32.0,20.8,29.94,SSE,158,1.0,11.0,63,0.00,,,0.00,Weather View 32 v70,2013-02-06 17:54:00,
2013-02-06 12:59:00,32.0,20.8,29.94,West,270,4.0,11.0,63,0.00,,,0.00,Weather View 32 v70,2013-02-06 17:59:00,
2013-02-06 13:09:00,32.0,20.1,29.95,WNW,292,2.0,11.0,61,0.00,,,0.00,Weather View 32 v70,2013-02-06 18:09:00,
2013-02-06 13:14:00,32.0,19.7,29.95,SE,135,2.0,11.0,60,0.00,,,0.00,Weather View 32 v70,2013-02-06 18:14:00,
2013-02-06 13:19:00,32.0,20.1,29.95,SW,225,3.0,11.0,61,0.00,,,0.00,Weather View 32 v70,2013-02-06 18:19:00,
2013-02-06 13:29:00,32.0,20.4,29.95,South,180,3.0,11.0,62,0.00,,,0.00,Weather View 32 v70,2013-02-06 18:29:00,
2013-02-06 13:39:00,33.0,19.8,29.95,SW,225,1.0,11.0,58,0.00,,,0.00,Weather View 32 v70,2013-02-06 18:39:00,
2013-02-06 13:44:00,33.0,19.8,29.95,SE,135,3.0,13.0,58,0.00,,,0.00,Weather View 32 v70,2013-02-06 18:44:00,
2013-02-06 13:54:00,33.0,18.6,29.95,South,180,6.0,13.0,55,0.00,,,0.00,Weather View 32 v70,2013-02-06 18:54:00,
2013-02-06 13:59:00,33.0,19.0,29.96,SE,135,1.0,14.0,56,0.00,,,0.00,Weather View 32 v70,2013-02-06 18:59:00,
2013-02-06 14:04:00,33.0,18.6,29.96,SW,225,3.0,15.0,55,0.00,,,0.00,Weather View 32 v70,2013-02-06 19:04:00,
2013-02-06 14:14:00,33.0,17.7,29.96,WSW,248,3.0,15.0,53,0.00,,,0.00,Weather View 32 v70,2013-02-06 19:14:00,
2013-02-06 14:24:00,33.0,16.8,29.96,WSW,248,5.0,15.0,51,0.00,,,0.00,Weather View 32 v70,2013-02-06 19:24:00,
2013-02-06 14:34:00,34.0,16.8,29.96,SSE,158,1.0,15.0,49,0.00,,,0.00,Weather View 32 v70,2013-02-06 19:34:00,
2013-02-06 14:44:00,34.0,18.6,29.97,SE,135,5.0,15.0,53,0.00,,,0.00,Weather View 32 v70,2013-02-06 19:44:00,
2013-02-06 14:50:00,33.0,20.6,29.97,South,180,3.0,15.0,60,0.00,,,0.00,Weather View 32 v70,2013-02-06 19:50:00,
2013-02-06 14:59:00,33.0,20.6,29.97,WSW,248,2.0,15.0,60,0.00,,,0.00,Weather View 32 v70,2013-02-06 19:59:00,
2013-02-06 15:04:00,33.0,21.4,29.98,SSE,158,1.0,13.0,62,0.00,,,0.00,Weather View 32 v70,2013-02-06 20:04:00,
2013-02-06 15:09:00,33.0,21.0,29.98,SW,225,1.0,13.0,61,0.00,,,0.00,Weather View 32 v70,2013-02-06 20:09:00,
2013-02-06 15:19:00,33.0,21.0,29.99,South,180,6.0,10.0,61,0.00,,,0.00,Weather View 32 v70,2013-02-06 20:19:00,
2013-02-06 15:29:00,32.0,19.7,29.99,WNW,292,3.0,10.0,60,0.00,,,0.00,Weather View 32 v70,2013-02-06 20:29:00,
2013-02-06 15:39:00,31.0,19.9,29.99,SSE,158,5.0,9.0,63,0.00,,,0.00,Weather View 32 v70,2013-02-06 20:39:00,
2013-02-06 15:49:00,31.0,20.2,30.00,South,180,3.0,9.0,64,0.00,,,0.00,Weather View 32 v70,2013-02-06 20:49:00,
2013-02-06 15:54:00,31.0,20.6,30.00,WNW,292,3.0,9.0,65,0.00,,,0.00,Weather View 32 v70,2013-02-06 20:54:00,
2013-02-06 15:59:00,30.0,20.0,30.00,West,270,1.0,8.0,66,0.00,,,0.00,Weather View 32 v70,2013-02-06 20:59:00,
2013-02-06 16:09:00,30.0,19.3,30.01,SE,135,2.0,8.0,64,0.00,,,0.00,Weather View 32 v70,2013-02-06 21:09:00,
2013-02-06 16:14:00,30.0,19.3,30.01,WNW,292,3.0,8.0,64,0.00,,,0.00,Weather View 32 v70,2013-02-06 21:14:00,
2013-02-06 16:24:00,29.0,16.1,30.02,SW,225,3.0,13.0,58,0.00,,,0.00,Weather View 32 v70,2013-02-06 21:24:00,
2013-02-06 16:34:00,29.0,16.1,30.02,SW,225,3.0,13.0,58,0.00,,,0.00,Weather View 32 v70,2013-02-06 21:34:00,
2013-02-06 16:39:00,29.0,16.1,30.03,SW,225,2.0,13.0,58,0.00,,,0.00,Weather View 32 v70,2013-02-06 21:39:00,
2013-02-06 16:44:00,29.0,17.2,30.03,WNW,292,5.0,13.0,61,0.00,,,0.00,Weather View 32 v70,2013-02-06 21:44:00,
2013-02-06 16:51:00,29.0,18.3,30.03,SW,225,4.0,13.0,64,0.00,,,0.00,Weather View 32 v70,2013-02-06 21:51:00,
2013-02-06 16:59:00,28.0,18.5,30.04,SSW,202,3.0,13.0,67,0.00,,,0.00,Weather View 32 v70,2013-02-06 21:59:00,
2013-02-06 17:09:00,27.0,18.2,30.05,SW,225,3.0,13.0,69,0.00,,,0.00,Weather View 32 v70,2013-02-06 22:09:00,
2013-02-06 17:19:00,27.0,18.2,30.06,South,180,3.0,13.0,69,0.00,,,0.00,Weather View 32 v70,2013-02-06 22:19:00,
2013-02-06 17:24:00,27.0,18.2,30.06,WNW,292,6.0,13.0,69,0.00,,,0.00,Weather View 32 v70,2013-02-06 22:24:00,
2013-02-06 17:29:00,26.0,16.9,30.07,WNW,292,3.0,15.0,68,0.00,,,0.00,Weather View 32 v70,2013-02-06 22:29:00,
2013-02-06 17:34:00,26.0,16.9,30.07,West,270,3.0,15.0,68,0.00,,,0.00,Weather View 32 v70,2013-02-06 22:34:00,
2013-02-06 17:44:00,26.0,16.5,30.07,West,270,3.0,15.0,67,0.00,,,0.00,Weather View 32 v70,2013-02-06 22:44:00,
2013-02-06 17:49:00,26.0,16.5,30.07,South,180,1.0,15.0,67,0.00,,,0.00,Weather View 32 v70,2013-02-06 22:49:00,
2013-02-06 17:54:00,26.0,16.5,30.08,SW,225,1.0,15.0,67,0.00,,,0.00,Weather View 32 v70,2013-02-06 22:54:00,
2013-02-06 17:59:00,26.0,16.2,30.08,SW,225,1.0,15.0,66,0.00,,,0.00,Weather View 32 v70,2013-02-06 22:59:00,
2013-02-06 18:09:00,25.0,15.2,30.09,WNW,292,3.0,15.0,66,0.00,,,0.00,Weather View 32 v70,2013-02-06 23:09:00,
2013-02-06 18:14:00,25.0,15.6,30.09,SE,135,1.0,15.0,67,0.00,,,0.00,Weather View 32 v70,2013-02-06 23:14:00,
2013-02-06 18:19:00,25.0,15.6,30.09,SE,135,1.0,15.0,67,0.00,,,0.00,Weather View 32 v70,2013-02-06 23:19:00,
2013-02-06 18:29:00,25.0,14.5,30.10,South,180,2.0,14.0,64,0.00,,,0.00,Weather View 32 v70,2013-02-06 23:29:00,
2013-02-06 18:34:00,25.0,14.2,30.11,SE,135,3.0,14.0,63,0.00,,,0.00,Weather View 32 v70,2013-02-06 23:34:00,
2013-02-06 18:39:00,25.0,13.8,30.11,SSW,202,5.0,14.0,62,0.00,,,0.00,Weather View 32 v70,2013-02-06 23:39:00,
2013-02-06 18:49:00,25.0,13.4,30.12,SSE,158,3.0,13.0,61,0.00,,,0.00,Weather View 32 v70,2013-02-06 23:49:00,
2013-02-06 18:54:00,24.0,12.5,30.13,South,180,3.0,13.0,61,0.00,,,0.00,Weather View 32 v70,2013-02-06 23:54:00,
2013-02-06 19:04:00,24.0,12.1,30.13,South,180,6.0,13.0,60,0.00,,,0.00,Weather View 32 v70,2013-02-07 00:04:00,
2013-02-06 19:14:00,24.0,11.7,30.14,West,270,4.0,13.0,59,0.00,,,0.00,Weather View 32 v70,2013-02-07 00:14:00,
2013-02-06 19:19:00,24.0,11.7,30.14,South,180,4.0,13.0,59,0.00,,,0.00,Weather View 32 v70,2013-02-07 00:19:00,
2013-02-06 19:29:00,24.0,11.7,30.14,SSW,202,1.0,13.0,59,0.00,,,0.00,Weather View 32 v70,2013-02-07 00:29:00,
2013-02-06 19:39:00,23.0,10.8,30.15,WNW,292,4.0,13.0,59,0.00,,,0.00,Weather View 32 v70,2013-02-07 00:39:00,
2013-02-06 19:44:00,23.0,10.8,30.15,West,270,3.0,13.0,59,0.00,,,0.00,Weather View 32 v70,2013-02-07 00:44:00,
2013-02-06 19:53:00,23.0,10.8,30.15,WNW,292,5.0,13.0,59,0.00,,,0.00,Weather View 32 v70,2013-02-07 00:53:00,
2013-02-06 19:59:00,23.0,9.6,30.15,WNW,292,3.0,13.0,56,0.00,,,0.00,Weather View 32 v70,2013-02-07 00:59:00,
2013-02-06 20:09:00,22.0,8.7,30.17,West,270,3.0,13.0,56,0.00,,,0.00,Weather View 32 v70,2013-02-07 01:09:00,
2013-02-06 20:14:00,22.0,7.9,30.17,SSE,158,4.0,13.0,54,0.00,,,0.00,Weather View 32 v70,2013-02-07 01:14:00,
2013-02-06 20:24:00,21.0,6.5,30.17,WSW,248,5.0,14.0,53,0.00,,,0.00,Weather View 32 v70,2013-02-07 01:24:00,
2013-02-06 20:34:00,21.0,5.7,30.18,SW,225,1.0,14.0,51,0.00,,,0.00,Weather View 32 v70,2013-02-07 01:34:00,
2013-02-06 20:39:00,21.0,5.3,30.18,South,180,1.0,19.0,50,0.00,,,0.00,Weather View 32 v70,2013-02-07 01:39:00,
2013-02-06 20:49:00,20.0,3.9,30.19,SE,135,3.0,19.0,49,0.00,,,0.00,Weather View 32 v70,2013-02-07 01:49:00,
2013-02-06 20:59:00,20.0,3.0,30.20,West,270,4.0,19.0,47,0.00,,,0.00,Weather View 32 v70,2013-02-07 01:59:00,
2013-02-06 21:04:00,20.0,3.5,30.20,WSW,248,10.0,19.0,48,0.00,,,0.00,Weather View 32 v70,2013-02-07 02:04:00,
2013-02-06 21:14:00,19.0,1.6,30.21,SSE,158,5.0,19.0,46,0.00,,,0.00,Weather View 32 v70,2013-02-07 02:14:00,
2013-02-06 21:19:00,19.0,1.2,30.21,WSW,248,1.0,19.0,45,0.00,,,0.00,Weather View 32 v70,2013-02-07 02:19:00,
2013-02-06 21:29:00,19.0,-1.4,30.21,SW,225,5.0,19.0,40,0.00,,,0.00,Weather View 32 v70,2013-02-07 02:29:00,
2013-02-06 21:34:00,19.0,-0.3,30.22,WNW,292,3.0,19.0,42,0.00,,,0.00,Weather View 32 v70,2013-02-07 02:34:00,
2013-02-06 21:44:00,18.0,-2.3,30.22,SE,135,1.0,16.0,40,0.00,,,0.00,Weather View 32 v70,2013-02-07 02:44:00,
2013-02-06 21:49:00,18.0,-2.8,30.22,SSE,158,2.0,16.0,39,0.00,,,0.00,Weather View 32 v70,2013-02-07 02:49:00,
2013-02-06 21:59:00,18.0,-2.8,30.24,South,180,1.0,16.0,39,0.00,,,0.00,Weather View 32 v70,2013-02-07 02:59:00,
2013-02-06 22:04:00,17.0,-4.2,30.23,South,180,11.0,16.0,38,0.00,,,0.00,Weather View 32 v70,2013-02-07 03:04:00,
2013-02-06 22:14:00,17.0,-4.8,30.25,WNW,292,1.0,16.0,37,0.00,,,0.00,Weather View 32 v70,2013-02-07 03:14:00,
2013-02-06 22:19:00,17.0,-5.9,30.25,South,180,8.0,16.0,35,0.00,,,0.00,Weather View 32 v70,2013-02-07 03:19:00,
2013-02-06 22:24:00,17.0,-5.9,30.26,WSW,248,1.0,16.0,35,0.00,,,0.00,Weather View 32 v70,2013-02-07 03:24:00,
2013-02-06 22:34:00,16.0,-6.8,30.25,WNW,292,7.0,16.0,35,0.00,,,0.00,Weather View 32 v70,2013-02-07 03:34:00,
2013-02-06 22:44:00,16.0,-5.7,30.26,SSE,158,5.0,16.0,37,0.00,,,0.00,Weather View 32 v70,2013-02-07 03:44:00,
2013-02-06 22:49:00,16.0,-5.7,30.26,WSW,248,5.0,16.0,37,0.00,,,0.00,Weather View 32 v70,2013-02-07 03:49:00,
2013-02-06 22:54:00,16.0,-5.7,30.26,WSW,248,2.0,16.0,37,0.00,,,0.00,Weather View 32 v70,2013-02-07 03:54:00,
2013-02-06 23:04:00,15.0,-6.6,30.27,SSE,158,2.0,16.0,37,0.00,,,0.00,Weather View 32 v70,2013-02-07 04:04:00,
2013-02-06 23:14:00,15.0,-5.5,30.27,SSE,158,3.0,16.0,39,0.00,,,0.00,Weather View 32 v70,2013-02-07 04:14:00,
2013-02-06 23:19:00,15.0,-5.5,30.28,SW,225,0.0,16.0,39,0.00,,,0.00,Weather View 32 v70,2013-02-07 04:19:00,
2013-02-06 23:29:00,15.0,-5.5,30.28,SSE,158,6.0,12.0,39,0.00,,,0.00,Weather View 32 v70,2013-02-07 04:29:00,
2013-02-06 23:41:00,15.0,-5.0,30.28,South,180,4.0,11.0,40,0.00,,,0.00,Weather View 32 v70,2013-02-07 04:41:00,
2013-02-06 23:49:00,15.0,-5.0,30.28,SE,135,3.0,10.0,40,0.00,,,0.00,Weather View 32 v70,2013-02-07 04:49:00,
2013-02-06 23:54:00,15.0,-4.5,30.28,SE,135,1.0,10.0,41,0.00,,,0.00,Weather View 32 v70,2013-02-07 04:54:00,
2013-02-06 23:59:00,15.0,-4.5,30.28,SSW,202,3.0,10.0,41,0.00,,,0.00,Weather View 32 v70,2013-02-07 04:59:00,